GW1458 Weather Reports


time (UTC)temp
C
wind
direction
speed
KPH
gust
KPH
rain 1hr
cm
rain 24hr
cm
rain mn
cm
humidity
%
barometer
mb
20260502151532 17 75 4.8 9.7 0.00 0.00 0.00 21 1018.2
20260502123031 8 240 4.8 6.4 0.00 0.00 0.00 35 1018.2
20260502121532 6 38 0.0 3.2 0.00 0.00 0.00 37 1018.2
20260502114538 6 270 0.0 3.2 0.00 0.00 0.00 39 1018.2
20260502113031 6 314 0.0 3.2 0.00 0.00 0.00 39 1018.2
20260502111533 7 0 0.0 6.4 0.00 0.00 0.00 36 1018.3
20260502110029 6 278 1.6 4.8 0.00 0.00 0.00 39 1018.5
20260502104531 5 0 0.0 1.6 0.00 0.00 0.00 41 1018.5
20260502103030 5 274 0.0 4.8 0.00 0.00 0.00 39 1018.6
20260502101529 6 270 0.0 6.4 0.00 0.00 0.00 39 1018.7
20260502091529 7 283 3.2 11.3 0.00 0.00 0.00 39 1018.9
20260502071532 6 332 1.6 6.4 0.00 0.00 0.00 48 1020.1
20260502070034 6 0 0.0 3.2 0.00 0.00 0.00 46 1019.9
20260502064541 7 265 0.0 6.4 0.00 0.00 0.00 44 1019.9
20260502063031 6 0 0.0 3.2 0.00 0.00 0.00 47 1020.1
20260502061531 7 214 1.6 4.8 0.00 0.00 0.00 44 1020.1
20260502060041 8 0 0.0 9.7 0.00 0.00 0.00 45 1020.1
20260502054529 7 0 0.0 8.0 0.00 0.00 0.00 47 1020.1
20260502053030 7 0 0.0 4.8 0.00 0.00 0.00 48 1020.2
20260502051534 7 0 0.0 4.8 0.00 0.00 0.00 48 1020.2
20260502050033 6 290 0.0 4.8 0.00 0.00 0.00 54 1020.2
20260502044528 7 0 0.0 3.2 0.00 0.00 0.00 49 1020.3
20260502043029 7 243 0.0 3.2 0.00 0.00 0.00 50 1020.4
20260502041534 7 345 0.0 3.2 0.00 0.00 0.00 44 1020.5
20260502040032 8 0 0.0 0.0 0.00 0.00 0.00 44 1020.6
20260502034533 7 248 4.8 6.4 0.00 0.00 0.00 45 1020.4
20260502033031 7 309 1.6 6.4 0.00 0.00 0.00 46 1020.4
20260502031530 8 288 1.6 8.0 0.00 0.00 0.00 44 1020.3
20260502030032 8 250 1.6 6.4 0.00 0.00 0.00 45 1020.2
20260502024533 9 274 3.2 8.0 0.00 0.00 0.00 43 1020.0
20260502023029 11 282 3.2 6.4 0.00 0.00 0.00 38 1019.8
20260502021528 12 317 6.4 14.5 0.00 0.00 0.00 34 1019.8
20260502020034 12 319 6.4 12.9 0.00 0.00 0.00 35 1019.7
20260502014532 13 353 12.9 22.5 0.00 0.00 0.00 30 1019.5
20260502013031 13 342 11.3 22.5 0.00 0.00 0.00 30 1019.4
20260502011530 14 345 17.7 27.4 0.00 0.00 0.00 29 1019.3
20260502010031 15 348 24.1 30.6 0.00 0.00 0.00 29 1019.2
20260502004539 15 322 24.1 33.8 0.00 0.00 0.00 27 1019.2
20260502003029 15 311 27.4 38.6 0.00 0.00 0.00 28 1019.1
20260502001532 15 309 29.0 41.8 0.00 0.00 0.00 25 1018.9
20260502000029 16 332 30.6 46.7 0.00 0.00 0.00 27 1018.9
20260501234532 16 352 33.8 45.1 0.00 0.00 0.00 26 1018.8
20260501233031 16 351 33.8 43.5 0.00 0.00 0.00 26 1018.9
20260501231532 16 352 33.8 49.9 0.00 0.00 0.00 26 1018.8
20260501230031 16 275 37.0 49.9 0.00 0.00 0.00 26 1018.9
20260501224532 16 34 38.6 49.9 0.00 0.00 0.00 27 1018.9
20260501223029 16 11 35.4 56.3 0.00 0.00 0.00 26 1018.7
20260501221530 16 349 35.4 53.1 0.00 0.00 0.00 27 1018.9
20260501220037 15 349 33.8 53.1 0.00 0.00 0.00 25 1018.9
20260501214530 15 305 30.6 51.5 0.00 0.00 0.00 26 1019.0
20260501213036 15 337 40.2 59.5 0.00 0.00 0.00 24 1018.9
20260501211533 15 340 40.2 64.4 0.00 0.00 0.00 27 1019.0
20260501210033 15 345 41.8 59.5 0.00 0.00 0.00 27 1019.1
20260501204544 16 340 33.8 53.1 0.00 0.00 0.00 27 1019.1
20260501203031 16 195 20.9 46.7 0.00 0.00 0.00 27 1019.3
20260501201531 15 356 38.6 54.7 0.00 0.00 0.00 27 1019.1
20260501200034 15 282 27.4 54.7 0.00 0.00 0.00 26 1019.4
20260501194532 15 344 46.7 64.4 0.00 0.00 0.00 27 1019.0
20260501193029 15 347 37.0 57.9 0.00 0.00 0.00 28 1019.5
20260501191539 15 337 29.0 62.8 0.00 0.00 0.00 27 1019.5
20260501190029 15 238 37.0 64.4 0.00 0.00 0.00 29 1019.4
20260501184542 14 330 41.8 54.7 0.00 0.00 0.00 26 1019.4
20260501183036 15 6 24.1 53.1 0.00 0.00 0.00 26 1019.4
20260501181530 14 342 45.1 67.6 0.00 0.00 0.00 27 1019.3
20260501180030 14 347 41.8 61.2 0.00 0.00 0.00 29 1019.3
20260501174532 14 348 43.5 59.5 0.00 0.00 0.00 29 1019.3
20260501173029 14 330 38.6 54.7 0.00 0.00 0.00 27 1019.3
20260501171546 14 322 30.6 51.5 0.00 0.00 0.00 30 1019.3
20260501170038 14 356 20.9 56.3 0.00 0.00 0.00 28 1019.5
20260501164531 13 330 19.3 54.7 0.00 0.00 0.00 29 1019.5
20260501163031 13 343 24.1 56.3 0.00 0.00 0.00 30 1019.2
20260501161532 13 326 38.6 61.2 0.00 0.00 0.00 29 1019.4
20260501160033 13 287 29.0 46.7 0.00 0.00 0.00 32 1019.6
20260501154540 12 352 29.0 40.2 0.00 0.00 0.00 34 1019.6
20260501153031 12 4 30.6 38.6 0.00 0.00 0.00 31 1019.6